Time,TemperatureF,DewpointF,PressureIn,WindDirection,WindDirectionDegrees,WindSpeedMPH,WindSpeedGustMPH,Humidity,HourlyPrecipIn,Conditions,Clouds,dailyrainin,SoftwareType,DateUTC
2013-09-16 00:22:00,48.0,-99.9,-100.00,North,-999,-999.0,-999.0,-999,0.00,,,0.03,,2013-09-16 06:22:00,
2013-09-16 00:32:00,48.0,-99.9,-100.00,North,-999,-999.0,-999.0,-999,0.00,,,0.03,,2013-09-16 06:32:00,
2013-09-16 00:43:00,48.0,-99.9,-100.00,North,-999,-999.0,-999.0,-999,0.00,,,0.03,,2013-09-16 06:43:00,
2013-09-16 01:22:00,47.0,-99.9,-100.00,North,-999,-999.0,-999.0,-999,0.00,,,0.03,,2013-09-16 07:22:00,
2013-09-16 01:32:00,47.0,-99.9,-100.00,North,-999,-999.0,-999.0,-999,0.00,,,0.03,,2013-09-16 07:32:00,
2013-09-16 01:43:00,47.0,-99.9,-100.00,North,-999,-999.0,-999.0,-999,0.00,,,0.03,,2013-09-16 07:43:00,
2013-09-16 02:22:00,46.0,-99.9,-100.00,North,-999,-999.0,-999.0,-999,0.00,,,0.03,,2013-09-16 08:22:00,
2013-09-16 02:32:00,46.0,-99.9,-100.00,North,-999,-999.0,-999.0,-999,0.00,,,0.03,,2013-09-16 08:32:00,
2013-09-16 02:42:00,46.0,-99.9,-100.00,North,-999,-999.0,-999.0,-999,0.00,,,0.03,,2013-09-16 08:42:00,
2013-09-16 03:22:00,46.0,-99.9,-100.00,North,-999,-999.0,-999.0,-999,0.00,,,0.03,,2013-09-16 09:22:00,
2013-09-16 03:34:00,46.0,-99.9,-100.00,North,-999,-999.0,-999.0,-999,0.00,,,0.03,,2013-09-16 09:34:00,
2013-09-16 03:43:00,46.0,-99.9,-100.00,North,-999,-999.0,-999.0,-999,0.00,,,0.03,,2013-09-16 09:43:00,
2013-09-16 04:23:00,47.0,-99.9,-100.00,North,-999,-999.0,-999.0,-999,0.00,,,0.03,,2013-09-16 10:23:00,
2013-09-16 04:33:00,47.0,-99.9,-100.00,North,-999,-999.0,-999.0,-999,0.00,,,0.03,,2013-09-16 10:33:00,
2013-09-16 04:43:00,47.0,-99.9,-100.00,North,-999,-999.0,-999.0,-999,0.00,,,0.03,,2013-09-16 10:43:00,
2013-09-16 05:22:00,46.0,-99.9,-100.00,North,-999,-999.0,-999.0,-999,0.00,,,0.03,,2013-09-16 11:22:00,
2013-09-16 05:33:00,46.0,-99.9,-100.00,North,-999,-999.0,-999.0,-999,0.00,,,0.03,,2013-09-16 11:33:00,
2013-09-16 05:42:00,46.0,-99.9,-100.00,North,-999,-999.0,-999.0,-999,0.00,,,0.03,,2013-09-16 11:42:00,
2013-09-16 06:22:00,47.0,-99.9,-100.00,North,-999,-999.0,-999.0,-999,0.01,,,-99.99,,2013-09-16 12:22:00,
2013-09-16 06:32:00,47.0,-99.9,-100.00,North,-999,-999.0,-999.0,-999,0.01,,,-99.99,,2013-09-16 12:32:00,
2013-09-16 06:42:00,47.0,-99.9,-100.00,North,-999,-999.0,-999.0,-999,0.01,,,-99.99,,2013-09-16 12:42:00,
2013-09-16 07:22:00,48.0,-99.9,-100.00,North,-999,-999.0,-999.0,-999,-99.99,,,0.03,,2013-09-16 13:22:00,
2013-09-16 07:32:00,48.0,-99.9,-100.00,North,-999,-999.0,-999.0,-999,-99.99,,,0.03,,2013-09-16 13:32:00,
2013-09-16 07:42:00,48.0,-99.9,-100.00,North,-999,-999.0,-999.0,-999,-99.99,,,0.03,,2013-09-16 13:42:00,
2013-09-16 08:22:00,46.0,-99.9,-100.00,North,-999,-999.0,-999.0,-999,0.00,,,0.03,,2013-09-16 14:22:00,
2013-09-16 08:32:00,46.0,-99.9,-100.00,North,-999,-999.0,-999.0,-999,0.00,,,0.03,,2013-09-16 14:32:00,
2013-09-16 08:42:00,46.0,-99.9,-100.00,North,-999,-999.0,-999.0,-999,0.00,,,0.03,,2013-09-16 14:42:00,
2013-09-16 09:22:00,48.0,-99.9,-100.00,North,-999,-999.0,-999.0,-999,0.00,,,0.03,,2013-09-16 15:22:00,
2013-09-16 09:33:00,48.0,-99.9,-100.00,North,-999,-999.0,-999.0,-999,0.00,,,0.03,,2013-09-16 15:33:00,
2013-09-16 09:43:00,48.0,-99.9,-100.00,North,-999,-999.0,-999.0,-999,0.00,,,0.03,,2013-09-16 15:43:00,
2013-09-16 10:23:00,51.0,-99.9,-100.00,North,-999,-999.0,-999.0,-999,0.00,,,0.03,,2013-09-16 16:23:00,
2013-09-16 10:33:00,51.0,-99.9,-100.00,North,-999,-999.0,-999.0,-999,0.00,,,0.03,,2013-09-16 16:33:00,
2013-09-16 10:43:00,51.0,-99.9,-100.00,North,-999,-999.0,-999.0,-999,0.00,,,0.03,,2013-09-16 16:43:00,
2013-09-16 11:23:00,56.0,-99.9,-100.00,North,-999,-999.0,-999.0,-999,0.01,,,0.04,,2013-09-16 17:23:00,
2013-09-16 11:33:00,56.0,-99.9,-100.00,North,-999,-999.0,-999.0,-999,0.01,,,0.04,,2013-09-16 17:33:00,
2013-09-16 11:43:00,56.0,-99.9,-100.00,North,-999,-999.0,-999.0,-999,0.01,,,0.04,,2013-09-16 17:43:00,
2013-09-16 12:22:00,61.0,-99.9,-100.00,North,-999,-999.0,-999.0,-999,0.00,,,0.04,,2013-09-16 18:22:00,
2013-09-16 12:32:00,61.0,-99.9,-100.00,North,-999,-999.0,-999.0,-999,0.00,,,0.04,,2013-09-16 18:32:00,
2013-09-16 12:42:00,61.0,-99.9,-100.00,North,-999,-999.0,-999.0,-999,0.00,,,0.04,,2013-09-16 18:42:00,
2013-09-16 13:22:00,69.0,-99.9,-100.00,North,-999,-999.0,-999.0,-999,0.01,,,0.05,,2013-09-16 19:22:00,
2013-09-16 13:32:00,69.0,-99.9,-100.00,North,-999,-999.0,-999.0,-999,0.01,,,0.05,,2013-09-16 19:32:00,
2013-09-16 13:42:00,69.0,-99.9,-100.00,North,-999,-999.0,-999.0,-999,0.01,,,0.05,,2013-09-16 19:42:00,
2013-09-16 14:22:00,69.0,-99.9,-100.00,North,-999,-999.0,-999.0,-999,-99.99,,,0.03,,2013-09-16 20:22:00,
2013-09-16 14:32:00,69.0,-99.9,-100.00,North,-999,-999.0,-999.0,-999,-99.99,,,0.03,,2013-09-16 20:32:00,
2013-09-16 14:43:00,69.0,-99.9,-100.00,North,-999,-999.0,-999.0,-999,-99.99,,,0.03,,2013-09-16 20:43:00,
2013-09-16 15:22:00,75.0,-99.9,-100.00,North,-999,-999.0,-999.0,-999,0.02,,,0.05,,2013-09-16 21:22:00,
2013-09-16 15:34:00,75.0,-99.9,-100.00,North,-999,-999.0,-999.0,-999,0.02,,,0.05,,2013-09-16 21:34:00,
2013-09-16 15:44:00,75.0,-99.9,-100.00,North,-999,-999.0,-999.0,-999,0.02,,,0.05,,2013-09-16 21:44:00,
2013-09-16 16:25:00,74.0,-99.9,-100.00,North,-999,-999.0,-999.0,-999,0.00,,,0.05,,2013-09-16 22:25:00,
2013-09-16 16:33:00,74.0,-99.9,-100.00,North,-999,-999.0,-999.0,-999,0.00,,,0.05,,2013-09-16 22:33:00,
2013-09-16 16:43:00,74.0,-99.9,-100.00,North,-999,-999.0,-999.0,-999,0.00,,,0.05,,2013-09-16 22:43:00,
2013-09-16 17:22:00,72.0,-99.9,-100.00,North,-999,-999.0,-999.0,-999,-99.99,,,0.03,,2013-09-16 23:22:00,
2013-09-16 18:42:00,58.0,-99.9,-100.00,North,-999,-999.0,-999.0,-999,0.25,,,0.26,,2013-09-17 00:42:00,
2013-09-16 19:22:00,58.0,-99.9,-100.00,North,-999,-999.0,-999.0,-999,0.00,,,0.26,,2013-09-17 01:22:00,
2013-09-16 19:32:00,58.0,-99.9,-100.00,North,-999,-999.0,-999.0,-999,0.00,,,0.26,,2013-09-17 01:32:00,
2013-09-16 19:42:00,58.0,-99.9,-100.00,North,-999,-999.0,-999.0,-999,0.00,,,0.26,,2013-09-17 01:42:00,
2013-09-16 20:22:00,53.0,-99.9,-100.00,North,-999,-999.0,-999.0,-999,0.00,,,-99.99,,2013-09-17 02:22:00,
2013-09-16 20:32:00,53.0,-99.9,-100.00,North,-999,-999.0,-999.0,-999,0.00,,,-99.99,,2013-09-17 02:32:00,
2013-09-16 20:42:00,53.0,-99.9,-100.00,North,-999,-999.0,-999.0,-999,0.00,,,-99.99,,2013-09-17 02:42:00,
2013-09-16 20:45:00,50.0,-99.9,-100.00,North,-999,-999.0,-999.0,-999,0.00,,,0.25,,2013-09-17 02:45:00,
2013-09-16 21:23:00,50.0,-99.9,-100.00,North,-999,-999.0,-999.0,-999,0.00,,,0.25,,2013-09-17 03:23:00,
2013-09-16 21:34:00,50.0,-99.9,-100.00,North,-999,-999.0,-999.0,-999,0.00,,,0.25,,2013-09-17 03:34:00,
2013-09-16 22:24:00,48.0,-99.9,-100.00,North,-999,-999.0,-999.0,-999,0.00,,,0.25,,2013-09-17 04:24:00,
2013-09-16 22:34:00,48.0,-99.9,-100.00,North,-999,-999.0,-999.0,-999,0.00,,,0.25,,2013-09-17 04:34:00,
2013-09-16 22:44:00,48.0,-99.9,-100.00,North,-999,-999.0,-999.0,-999,0.00,,,0.25,,2013-09-17 04:44:00,
2013-09-16 23:23:00,47.0,-99.9,-100.00,North,-999,-999.0,-999.0,-999,0.00,,,0.25,,2013-09-17 05:23:00,
2013-09-16 23:34:00,47.0,-99.9,-100.00,North,-999,-999.0,-999.0,-999,0.00,,,0.25,,2013-09-17 05:34:00,
2013-09-16 23:43:00,47.0,-99.9,-100.00,North,-999,-999.0,-999.0,-999,0.00,,,0.25,,2013-09-17 05:43:00,